Regional Weather Roundup
Issued by NWS Northern Indiana

Home | Current Version | Previous Version | Text Only | Print | Product List | Glossary On
Versions: 1 2 3 4 5 6 7 8 9 10 11 12 13 14 15 16 17 18 19 20 21 22 23 24 25 26 27 28 29 30 31 32 33 34 35 36 37 38 39 40 41 42 43 44 45 46 47 48 49 50
000
ASUS43 KIWX 010610
RWRIWX

KIWX WEATHER ROUNDUP
NATIONAL WEATHER SERVICE NORTHERN INDIANA
200 AM EDT SAT AUG 01 2015

NOTE: "FAIR" INDICATES FEW OR NO CLOUDS BELOW 12,000 FEET WITH NO
SIGNIFICANT WEATHER AND/OR OBSTRUCTIONS TO VISIBILITY.

* THESE STATIONS ARE NOT UNDER NWS QUALITY CONTROL. THEY ALSO MAY NOT
  REPORT WEATHER SUCH AS PRECIPITATION OR FOG.

INZ001>027-010700-
NORTHERN INDIANA

CITY           SKY/WX    TMP DP  RH WIND       PRES   REMARKS
GARY*          CLEAR     66  56  68 W3        29.99R
VALPARAISO     CLEAR     64  57  78 W5        29.99S
6HR MIN TEMP:  64; 6HR MAX TEMP:  80;

MICHIGAN CITY* CLEAR     64  55  72 CALM      29.98S
LAPORTE*       CLEAR     60  60 100 W3        29.99S
6HR MIN TEMP:  60; 6HR MAX TEMP:  79;

KNOX*          CLEAR     59  59 100 SW3       29.98S
SOUTH BEND     CLEAR     62  57  83 SW3       29.98R
6HR MIN TEMP:  62; 6HR MAX TEMP:  78;

GOSHEN         CLEAR     60  54  80 CALM      29.97R
6HR MIN TEMP:  60; 6HR MAX TEMP:  78;

MONTICELLO*    CLEAR     64  58  81 W7        30.00R
6HR MIN TEMP:  64; 6HR MAX TEMP:  82;

LOGANSPORT*    CLEAR     59  52  77 SW3       30.01R
ROCHESTER*     CLEAR     64  59  82 W5        30.00R
WARSAW*        CLEAR     61  55  82 CALM      29.99R
ANGOLA*        CLEAR     59  54  82 CALM      29.97R
FORT WAYNE     CLEAR     62  57  83 W6        29.98S
6HR MIN TEMP:  61; 6HR MAX TEMP:  81;

HUNTINGTON*    CLEAR     64  57  80 W5        29.98S
6HR MIN TEMP:  61; 6HR MAX TEMP:  80;

PERU/GRISSOM   CLEAR     59  56  89 SW7       29.99R
6HR MIN TEMP:  59; 6HR MAX TEMP:  81;

MARION*        CLEAR     59  57  92 CALM      30.00S
6HR MIN TEMP:  52; 6HR MAX TEMP:  89;


$$
INZ028>050-010700-
CENTRAL INDIANA

CITY           SKY/WX    TMP DP  RH WIND       PRES   REMARKS
LAFAYETTE      CLEAR     61  59  93 W6        30.00S
6HR MIN TEMP:  61; 6HR MAX TEMP:  80;

KOKOMO*        CLEAR     63  55  77 W5        30.01R
6HR MIN TEMP:  63; 6HR MAX TEMP:  82;

MUNCIE*        CLEAR     64  58  80 W3        30.00R
6HR MIN TEMP:  63; 6HR MAX TEMP:  78;

INDIANAPOLIS   CLEAR     71  59  65 W9        30.00R
6HR MIN TEMP:  70; 6HR MAX TEMP:  83;


$$
MIZ043>046-050>051-056>058-064>065-071>073-077>080-010700-
SOUTHWEST LOWER MICHIGAN

CITY           SKY/WX    TMP DP  RH WIND       PRES   REMARKS
BATTLE CREEK   CLEAR     64  55  72 W7        29.95R
6HR MIN TEMP:  63; 6HR MAX TEMP:  78;

BENTON HARBOR  CLEAR     72  59  63 W10       29.95S
6HR MIN TEMP:  61; 6HR MAX TEMP:  75;

COLDWATER*     CLEAR     59  53  80 SW5       29.95S
6HR MIN TEMP:  59; 6HR MAX TEMP:  76;

HILLSDALE*     CLEAR     64  53  67 W5        29.95S
6HR MIN TEMP:  63; 6HR MAX TEMP:  77;

HOLLAND        CLEAR     70  61  73 W6        29.95R
6HR MIN TEMP:  66; 6HR MAX TEMP:  77;

GRAND RAPIDS   CLEAR     65  58  78 W6        29.93R
6HR MIN TEMP:  65; 6HR MAX TEMP:  78;

KALAMAZOO      CLEAR     66  56  70 W8        29.95S
6HR MIN TEMP:  63; 6HR MAX TEMP:  78;

STURGIS*       CLEAR     61  55  82 CALM      29.96R
THREE RIVERS*  FAIR      60  55  84 CALM      29.96R
6HR MIN TEMP:  60; 6HR MAX TEMP:  77;


$$
OHZ001>008-015>018-024>025-010700-
NORTHWEST OHIO

CITY           SKY/WX    TMP DP  RH WIND       PRES   REMARKS
WAUSEON*       FAIR      59  55  88 W5        29.94S
DEFIANCE       CLEAR     64  54  69 CALM      29.95S
6HR MIN TEMP:  63; 6HR MAX TEMP:  82;

FINDLAY        CLEAR     64  56  75 W6        29.94S
6HR MIN TEMP:  64; 6HR MAX TEMP:  78;

TOLEDO EXPRESS CLEAR     65  54  67 W8        29.93S
6HR MIN TEMP:  64; 6HR MAX TEMP:  80;

TOLEDO METCALF CLEAR     65  53  65 W7        29.93S
6HR MIN TEMP:  65; 6HR MAX TEMP:  82;

LIMA           CLEAR     61  56  83 CALM      29.97S
6HR MIN TEMP:  61; 6HR MAX TEMP:  77;


$$
AND FOR LAKE MICHIGAN COASTAL AND OPEN LAKE BUOY OBSERVATIONS

STATION/POSITION TEMP    WIND        PRES    VSBY  WAVE
                 AIR SEA DIR/SP/G                  HT/PER
                 (F)     (DEG/KT/KT) (MB)    (MI)  (FT/S)
CALUMET HARBOR    74     270/  2/  4   N/A
MICHIGAN CITY     75     270/ 12/ 13   N/A
BURNS HARBOR      75     300/  7/  9 1015.2S
SAINT JOSEPH      74     290/ 10/ 13 1015.2R
4 MI NW BRIDGMAN  74 74  330/ 14/ 16   N/A           3/ 4
MICHIGAN CITY     75 74  310/ 12/ 16   N/A           2/ 4

$$
&&


USA.gov is the U.S. government's official web portal to all federal, state and local government web resources and services.